Walla Walla, WA
on Monday, February 11, 2013

Monday
Previous Day Next Day
Daily Summary
 ActualAverage (KPDT)Record (KPDT)
Temperature
Mean Temperature °F 38°F  
Max Temperature 48°F 46°F 66°F (1924)
Min Temperature 30°F 30°F -8°F (1929)
Degree Days
Heating Degree Days 26 27  
Month to date heating degree days 304  
Since 1 July heating degree days 3462  
Cooling Degree Days 0 0  
Month to date cooling degree days 0  
Year to date cooling degree days 0  
Moisture
Dew Point 31°F   
Average Humidity 69    
Maximum Humidity 77    
Minimum Humidity 56    
Precipitation
Precipitation 0.00 in 0.04 in 0.70 in (1923)
Month to date precipitation 0.43  
Year to date precipitation 1.86  
Snow
Snow 0.00 in 0.10 in 4.50 in (1933)
Month to date snowfall 1.4  
Year to date snowfall 5.1  
Since 1 July snowfall 12.6  
Snow Depth in   
Wind
Wind Speed 7 mph   
Max Wind Speed 15 mph   
Max Gust Speed mph   
Visibility 10 miles   
Events     

Key: T is trace of precipitation, MM is missing value
Source: NWS Daily Summary
Time(PST)TemperatureDew PointHumidity Pressure Visibility Wind DirectionWind SpeedGust SpeedPrecipitationEvents Conditions
1:53 AM 35.1°F 27.0°F 72% 30.22 in 10.0 miles NW 3.5 mph - N/A   Clear
2:53 AM 33.1°F 25.0°F 72% 30.21 in 10.0 miles ESE 3.5 mph - N/A   Clear
3:53 AM 33.1°F 24.1°F 70% 30.22 in 10.0 miles ESE 4.6 mph - N/A   Clear
4:53 AM 30.9°F 24.1°F 76% 30.24 in 10.0 miles SE 6.9 mph - N/A   Clear
5:53 AM 33.1°F 25.0°F 72% 30.24 in 10.0 miles SSE 8.1 mph - N/A   Clear
6:53 AM 32.0°F 25.0°F 75% 30.23 in 10.0 miles South 6.9 mph - N/A   Clear
7:53 AM 35.1°F 27.0°F 72% 30.24 in 10.0 miles SSW 6.9 mph - N/A   Clear
8:53 AM 39.9°F 28.0°F 63% 30.25 in 10.0 miles South 5.8 mph - N/A   Clear
9:53 AM 42.1°F 30.0°F 62% 30.25 in 10.0 miles SSW 9.2 mph - N/A   Clear
10:53 AM 44.1°F 32.0°F 63% 30.25 in 10.0 miles SW 11.5 mph - N/A   Clear
11:53 AM 45.0°F 33.1°F 63% 30.24 in 10.0 miles WSW 10.4 mph - N/A   Clear
12:53 PM 46.9°F 33.1°F 59% 30.23 in 10.0 miles SW 15.0 mph - N/A   Clear
1:53 PM 48.0°F 33.1°F 56% 30.22 in 10.0 miles SSW 8.1 mph - N/A   Clear
2:53 PM 46.9°F 35.1°F 63% 30.22 in 10.0 miles West 11.5 mph - N/A   Clear
3:53 PM 45.0°F 35.1°F 68% 30.23 in 10.0 miles West 8.1 mph - N/A   Clear
4:53 PM 44.1°F 35.1°F 71% 30.25 in 10.0 miles SW 3.5 mph - N/A   Overcast
5:53 PM 39.9°F 33.1°F 77% 30.25 in 10.0 miles SE 5.8 mph - N/A   Clear
6:53 PM 42.1°F 32.0°F 67% 30.25 in 10.0 miles SSE 8.1 mph - N/A   Clear
7:53 PM 43.0°F 33.1°F 68% 30.25 in 10.0 miles SSE 8.1 mph - N/A   Scattered Clouds
8:53 PM 44.1°F 35.1°F 71% 30.26 in 10.0 miles South 10.4 mph - N/A   Overcast
9:53 PM 42.1°F 35.1°F 76% 30.27 in 10.0 miles South 6.9 mph - N/A   Overcast
10:53 PM 41.0°F 34.0°F 76% 30.28 in 10.0 miles South 6.9 mph - N/A   Overcast
11:53 PM 42.1°F 34.0°F 73% 30.29 in 10.0 miles South 10.4 mph - N/A   Overcast
Moon Phase
Feb. 11 Feb. 17 Feb. 25 Mar. 04 Mar. 11
Sunrise:07:01 AM (PST) Moon Rise:07:20 AM (PST)2/11
Sunset:05:13 PM (PST) Moon Set:07:26 PM (PST)2/11

Copyright © 2014 The Weather Underground, Inc.